Flag for Finland Weather past 2 weeks in Pori, Finland

Now
32 °F

Light snow. Mostly cloudy.


Feels Like: 26 °F
Forecast: 29 / 36 °F
Wind: 7 mph from West

Location: Pori Airport

Current Time: Dec 18, 2014 at 1:52:21 AM

Latest Report: Dec 18, 2014 at 1:20 AM


Visibility: 3 mi

Pressure: 29.36 "Hg

Humidity: 100%

Dew point: 32 °F

Location of PoriLocation

Historic Weather in Pori — Graph

°F

Pori temperature yesterday

Maximum temperature yesterday: 34 °F (at 1:50 AM)
Minimum temperature yesterday: 27 °F (at 6:50 PM)
Average temperature yesterday: 32 °F

Past Weeks' High & Low Weather Summary

 TemperatureHumidityPressure
High48 °F (Dec 4, 8:50 AM)100% (Dec 3, 2:20 AM)30.18 "Hg (Dec 3, 2:20 AM)
Low27 °F (Dec 13, 4:50 PM)66% (Dec 4, 8:50 AM)28.88 "Hg (Dec 13, 6:20 AM)
Average36 °F90%29.59 "Hg
* Reported Dec 3 12:20 AM — Dec 18 12:20 AM, Pori, Weather by CustomWeather, © 2014

Note: Actual official high and low records may vary slightly from our data, if they occured in-between our weather recording intervals... More about our weather records

Advertising

Pori weather history for previous 24 hours

 ConditionsComfort  
Time TempWeatherWind HumidityBarometerVisibility
12:20 AM
Dec 18
32 °FPassing clouds.6 mph93%29.36 "HgN/A
11:50 PM
Dec 17
32 °FLight snow. Partly cloudy.5 mph93%29.36 "HgN/A
11:20 PM32 °FLight snow. Passing clouds.6 mph93%29.36 "HgN/A
10:50 PM32 °FPassing clouds.7 mph93%29.36 "HgN/A
10:20 PM32 °FLight snow. Partly cloudy.5 mph93%29.36 "HgN/A
9:50 PM32 °FLight snow. Overcast.5 mph93%29.33 "HgN/A
9:20 PM32 °FMostly cloudy.5 mph93%29.33 "HgN/A
8:50 PM32 °FPartly cloudy.5 mph93%29.33 "HgN/A
8:20 PM32 °FPassing clouds.3 mph93%29.33 "HgN/A
7:50 PM32 °FPartly cloudy.5 mph93%29.33 "HgN/A
7:20 PM30 °FPassing clouds.3 mph100%29.33 "HgN/A
6:50 PM27 °FPassing clouds.2 mph100%29.33 "HgN/A
6:20 PM28 °FPassing clouds.3 mph93%29.33 "HgN/A
5:50 PM30 °FClear.5 mph93%29.33 "Hg10 mi
5:20 PM30 °FPassing clouds.5 mph93%29.33 "HgN/A
4:50 PM32 °FPassing clouds.5 mph93%29.33 "HgN/A
4:20 PM30 °FPassing clouds.3 mph93%29.33 "HgN/A
3:50 PM32 °FPassing clouds.3 mph93%29.33 "HgN/A
3:20 PM30 °FIce fog.5 mph100%29.33 "Hg2 mi
2:50 PM32 °FIce fog.2 mph93%29.33 "Hg3 mi
2:20 PM32 °FPartly sunny.2 mph100%29.33 "Hg6 mi
1:50 PM34 °FMostly cloudy.3 mph93%29.33 "HgN/A
1:20 PM34 °FPartly sunny.3 mph93%29.33 "HgN/A
12:50 PM34 °FOvercast.3 mph93%29.33 "HgN/A
12:20 PM34 °FMore clouds than sun.5 mph93%29.33 "HgN/A
11:50 AM34 °FLight snow. More clouds than sun.6 mph93%29.30 "Hg2 mi
11:20 AM34 °FLight rain. Mostly cloudy.7 mph100%29.33 "Hg2 mi
10:50 AM32 °FCloudy.2 mph100%29.30 "Hg6 mi
10:20 AM34 °FMore clouds than sun.3 mph93%29.30 "HgN/A
9:50 AM34 °FMore clouds than sun.8 mph100%29.30 "HgN/A
9:20 AM32 °FPassing clouds.5 mph100%29.30 "HgN/A
8:50 AM34 °FMostly cloudy.5 mph93%29.30 "Hg6 mi
8:20 AM32 °FMostly cloudy.No wind100%29.30 "Hg5 mi
7:50 AM32 °FIce fog.No wind100%29.30 "Hg3 mi
7:20 AM32 °FOvercast.1 mph100%29.30 "Hg6 mi
6:50 AM32 °FLow clouds.No wind100%29.30 "HgN/A
6:20 AM32 °FLight rain. Overcast.No wind100%29.30 "Hg6 mi
5:50 AM32 °FLight rain. Partly cloudy.3 mph100%29.30 "Hg5 mi
5:20 AM32 °FOvercast.1 mph100%29.30 "Hg6 mi
4:50 AM32 °FOvercast.2 mph100%29.30 "HgN/A
4:20 AM32 °FLight snow. Mostly cloudy.3 mph100%29.30 "Hg4 mi
3:50 AM34 °FLight rain. Low clouds.6 mph93%29.30 "Hg2 mi
3:20 AM34 °FLight rain. Low clouds.5 mph93%29.33 "Hg5 mi
2:50 AM34 °FLight rain. Overcast.7 mph93%29.33 "HgN/A
2:20 AM34 °FLight rain. Mostly cloudy.7 mph93%29.33 "HgN/A
1:50 AM34 °FLight rain. Passing clouds.9 mph87%29.33 "HgN/A
1:20 AM32 °FPassing clouds.9 mph93%29.33 "HgN/A
Weather by CustomWeather, © 2014

See weather overviewHow to use our weather pages